Wind_Speed
14 15 15 16 16 16 17 17 18 18 19 18 19 19 20 20 21 21 22 23 23 25 25 24 24 25 25 25 26 26 26 26 25 25 25 25 25 26 26 26 26 27 27 27
16 16 16 17 17 18 18 19 19 19 19 19 21 21 21 22 22 23 23 24 25 26 26 26 26 26 26 26 26 26 26 26 26 26 25 26 26 26 26 26 27 27 28 28
17 17 18 18 18 18 19 19 20 20 20 21 22 23 23 24 24 24 25 25 26 26 26 26 26 26 26 26 26 26 26 27 27 26 26 26 26 26 27 27 27 27 27 28
18 19 20 19 18 19 19 19 20 21 21 22 23 24 24 25 25 25 26 26 27 27 27 27 27 27 27 26 27 27 27 27 27 27 26 26 27 27 27 28 27 27 27 27
19 20 21 20 19 19 20 20 21 22 22 23 23 24 25 26 26 26 26 26 27 27 27 27 28 28 28 28 28 28 28 28 28 28 28 27 27 28 28 28 28 28 28 27
20 20 21 20 20 20 21 21 21 22 23 23 23 24 25 25 26 27 27 27 27 27 27 28 28 28 28 28 28 28 28 28 28 29 29 28 28 28 28 28 28 28 28 28
21 22 23 22 22 21 21 21 22 22 23 24 24 24 25 25 26 27 27 27 27 27 28 28 28 28 28 29 29 29 28 28 29 29 29 29 29 29 29 29 29 29 29 29
23 24 24 24 24 24 24 23 23 23 23 24 24 24 24 25 26 27 28 28 27 27 28 28 27 27 28 28 28 28 28 28 29 29 29 29 30 30 29 29 29 30 30 29
24 24 25 26 26 26 26 26 25 25 24 24 25 25 26 26 27 28 28 28 28 28 28 28 28 28 27 28 28 27 27 27 28 29 29 29 30 30 30 30 30 30 30 29
24 24 25 25 26 27 27 27 26 26 25 25 26 26 27 27 27 28 28 29 29 29 29 29 28 28 28 28 28 28 28 28 28 29 29 29 30 30 31 31 30 30 30 30
25 25 25 26 26 27 27 27 27 26 26 26 27 27 27 27 27 28 29 29 29 29 29 29 29 28 29 29 29 28 28 29 29 29 29 30 30 30 31 31 30 30 30 31
25 25 26 26 26 27 27 27 27 27 27 28 28 28 28 28 28 29 29 29 29 29 29 29 29 29 29 29 28 28 28 29 30 30 30 30 30 31 31 31 30 30 30 30
25 26 26 26 26 26 27 27 27 27 28 28 28 28 28 27 28 28 28 28 29 29 29 29 28 28 28 28 28 28 29 29 30 31 31 31 31 31 31 30 30 30 31 31
25 26 26 26 26 26 27 27 27 27 28 28 28 28 27 27 27 28 27 27 27 27 27 27 27 27 27 28 28 29 29 30 30 30 30 30 31 31 31 31 30 30 30 30
26 26 26 26 26 27 27 27 27 27 27 27 27 27 27 27 27 27 26 26 26 26 26 26 25 26 27 28 28 29 29 30 30 30 29 29 30 29 29 29 29 29 29 29
26 26 26 27 27 27 28 27 28 27 27 27 27 27 27 27 26 26 26 26 26 26 26 26 26 27 27 28 28 29 29 30 29 29 28 28 28 28 28 28 28 29 29 29
27 27 27 27 27 28 28 28 28 28 28 27 27 26 26 26 25 25 26 26 27 26 26 26 26 27 28 28 28 29 29 29 29 28 28 28 28 29 29 29 29 29 29 29
27 27 27 27 27 28 28 28 28 28 28 27 26 26 26 26 26 26 26 27 27 27 27 27 27 27 28 28 29 29 29 28 28 28 28 29 29 29 28 28 29 29 28 28
27 27 27 27 28 28 28 27 27 27 26 26 25 25 26 26 26 26 27 27 27 27 27 28 28 28 28 29 29 29 28 28 28 28 28 29 28 28 28 28 28 28 28 28
27 26 26 27 27 27 27 27 27 26 26 26 26 26 26 26 26 26 27 27 28 28 28 28 28 29 29 29 29 29 28 28 27 27 28 28 28 27 27 27 26 26 26 27
26 26 26 27 27 26 26 26 26 26 26 26 26 26 26 27 27 27 28 28 28 28 28 29 29 29 29 29 28 28 28 27 27 27 27 27 27 27 26 25 25 25 25 26
26 26 26 26 26 26 26 25 25 26 26 26 26 27 27 27 27 28 28 28 28 29 29 29 29 29 29 29 28 28 28 28 27 27 27 27 26 26 25 25 26 26 26 26
25 25 25 25 25 25 25 25 25 26 26 26 26 26 26 27 27 28 28 28 28 28 28 29 29 29 29 29 29 28 28 28 28 27 27 27 26 26 26 26 26 26 27 27
25 25 26 26 25 25 25 25 26 26 26 26 26 26 26 27 27 28 28 28 29 29 29 29 29 29 30 29 29 29 29 29 28 27 27 26 26 26 26 26 26 26 27 27
26 26 26 26 26 26 26 27 26 26 26 26 26 27 27 27 27 28 28 28 29 29 29 29 30 30 30 30 30 30 29 29 28 27 27 27 27 26 26 26 26 26 26 26
27 27 27 27 27 28 27 27 26 26 26 26 26 27 27 28 28 28 28 29 29 29 30 30 30 30 30 30 30 30 30 30 29 28 28 27 26 26 25 25 25 25 26 26
27 26 26 27 27 27 27 26 26 26 27 27 27 28 28 28 28 29 29 29 29 29 29 29 29 30 29 30 30 30 29 29 28 28 27 27 26 26 26 26 26 26 25 25
Wind_Direction
281 277 277 278 281 283 283 282 281 283 284 286 288 288 287 289 290 289 289 290 291 293 291 291 291 290 290 289 287 285 284 283 281 280 279 278 278 278 279 279 279 278 277 277
280 279 278 279 282 283 282 281 281 281 282 284 286 287 288 288 288 289 290 290 292 292 291 291 291 290 290 289 287 286 284 282 281 280 279 278 278 279 279 280 279 278 278 276
281 281 280 281 285 287 284 282 282 283 284 284 286 288 289 290 291 290 290 291 292 291 291 291 291 290 289 289 287 285 285 283 282 280 279 277 278 280 280 280 280 280 278 277
280 281 281 286 288 289 288 287 285 285 284 285 287 288 290 290 291 292 292 292 292 291 291 291 292 291 290 288 288 287 287 286 284 282 280 279 279 280 281 280 280 279 279 278
281 282 283 286 291 293 292 290 288 287 287 287 287 288 288 289 291 293 294 294 293 292 292 293 292 291 290 289 289 288 288 286 283 282 281 281 280 279 280 279 278 279 279 278
282 282 284 288 289 291 292 292 291 289 289 290 290 290 289 289 290 291 293 292 293 292 291 292 292 290 288 289 290 289 287 285 283 282 281 280 280 280 279 279 278 279 279 278
281 283 283 286 287 290 292 295 294 293 292 292 292 293 292 291 291 292 294 295 294 293 292 293 292 290 289 289 289 289 288 286 285 284 282 282 281 280 278 277 277 278 279 278
281 282 283 285 286 288 291 291 292 293 294 294 294 294 294 294 293 294 294 295 294 294 293 293 292 291 290 290 289 288 288 287 287 286 284 283 282 280 278 278 277 277 277 277
282 283 285 286 285 286 288 290 292 293 293 294 294 294 294 295 295 295 294 294 294 294 294 293 292 291 292 291 290 289 288 287 287 287 286 284 282 280 279 278 278 276 276 276
282 283 284 284 284 285 287 289 291 292 292 293 295 296 296 296 296 296 295 295 294 293 293 292 291 291 291 291 290 288 287 287 288 287 287 285 283 281 280 279 279 276 275 276
284 284 284 283 284 286 286 288 289 291 292 294 295 296 297 296 296 296 296 296 296 295 294 292 290 290 290 291 290 289 287 287 288 288 287 286 285 283 282 280 280 278 275 275
286 285 284 284 285 286 286 287 288 289 291 294 296 296 297 297 297 297 297 297 296 295 295 292 290 289 290 290 290 290 289 289 289 289 289 288 287 284 281 280 279 279 277 276
284 284 283 283 284 284 285 287 288 289 291 293 295 297 297 298 298 298 298 297 296 295 295 293 290 290 290 291 291 291 292 292 291 290 290 289 288 286 283 282 280 279 277 277
284 284 284 284 284 285 286 287 288 290 291 292 294 295 297 297 298 298 299 299 298 297 296 295 292 291 291 292 292 292 293 293 293 292 290 289 288 287 285 283 281 281 279 276
283 285 285 285 285 285 286 286 288 290 292 292 293 293 295 297 297 298 298 299 299 298 297 296 294 293 294 294 293 293 293 294 295 294 292 290 289 288 288 286 283 281 280 277
283 285 287 288 288 288 287 287 288 290 291 292 292 293 294 295 296 296 297 298 299 299 299 298 295 294 295 295 294 294 295 295 296 295 294 292 291 290 289 288 285 283 282 279
285 287 288 289 290 292 292 291 290 290 291 292 292 292 293 294 294 294 295 296 297 298 299 299 297 296 296 296 296 295 295 295 295 295 295 293 291 290 289 288 286 283 282 282
286 287 287 288 290 292 293 293 291 291 291 291 290 291 292 293 294 294 295 295 296 297 298 298 297 297 296 296 297 297 296 295 295 294 293 292 292 292 290 289 287 284 283 283
289 289 289 289 291 292 292 293 293 291 290 288 289 290 292 293 294 295 295 296 296 297 297 297 297 297 297 298 298 298 297 295 294 293 293 293 293 293 292 290 289 287 285 285
290 290 290 290 291 291 291 291 291 291 289 288 288 289 291 292 293 295 296 297 297 297 298 298 297 297 297 298 298 298 298 296 294 293 293 293 293 293 292 291 290 289 288 287
290 291 291 292 291 291 291 291 290 290 290 289 289 289 291 293 294 295 295 297 297 297 298 298 297 297 298 298 298 297 296 295 295 293 293 293 293 293 291 290 289 290 290 289
291 292 292 293 293 292 293 292 291 290 290 290 290 289 290 292 294 294 295 296 297 298 298 298 298 297 297 297 297 296 296 295 295 294 293 292 292 292 291 291 291 291 291 290
291 292 292 293 294 294 293 292 292 292 292 291 291 291 291 292 294 294 295 296 297 298 298 298 298 298 297 296 296 296 296 295 295 293 292 292 291 291 291 292 293 292 292 292
291 291 291 292 293 294 294 294 293 292 292 292 292 293 294 294 294 295 296 295 296 298 298 298 299 299 298 296 296 296 295 294 294 293 293 292 292 292 292 292 292 293 293 293
290 290 291 292 292 292 293 293 293 291 291 291 292 293 294 295 295 296 297 296 297 298 299 299 299 300 298 297 296 295 295 294 292 291 292 292 292 292 292 292 293 294 294 295
289 290 290 290 291 292 292 293 293 292 291 291 291 292 294 294 296 296 297 297 296 298 299 299 299 299 299 299 297 295 295 293 290 289 290 291 292 292 291 292 294 295 295 295
288 290 290 290 291 292 292 292 292 292 292 292 291 292 293 293 295 296 297 298 298 299 300 300 300 301 301 301 299 297 295 294 292 290 290 290 290 291 291 292 293 294 294 295
Height
5797 5797 5796 5796 5796 5795 5794 5794 5793 5793 5792 5791 5789 5788 5786 5785 5784 5782 5781 5779 5777 5775 5773 5771 5769 5767 5764 5762 5760 5758 5756 5755 5754 5752 5751 5750 5749 5749 5748 5747 5746 5745 5745 5744
5793 5792 5792 5791 5791 5790 5789 5788 5788 5787 5786 5785 5783 5782 5781 5779 5778 5776 5774 5773 5771 5769 5766 5764 5762 5760 5757 5755 5753 5751 5749 5747 5746 5745 5744 5743 5742 5741 5740 5739 5738 5737 5736 5736
5788 5787 5786 5786 5786 5785 5784 5783 5782 5781 5781 5779 5777 5776 5775 5773 5771 5770 5768 5766 5763 5761 5759 5757 5755 5753 5750 5748 5746 5744 5742 5740 5739 5737 5736 5735 5734 5733 5732 5731 5730 5729 5728 5727
5782 5783 5781 5783 5781 5779 5778 5777 5776 5775 5774 5773 5771 5769 5768 5766 5764 5763 5761 5759 5756 5754 5752 5750 5747 5745 5743 5740 5738 5736 5734 5733 5731 5729 5728 5727 5726 5725 5724 5722 5722 5721 5720 5719
5777 5776 5776 5777 5775 5773 5772 5771 5770 5769 5767 5766 5765 5763 5761 5759 5757 5755 5753 5751 5749 5747 5744 5742 5739 5737 5735 5733 5731 5728 5726 5724 5723 5721 5720 5718 5717 5716 5715 5714 5713 5712 5711 5710
5771 5770 5770 5772 5769 5767 5767 5765 5764 5762 5760 5759 5757 5756 5755 5752 5750 5748 5745 5743 5741 5739 5737 5734 5732 5729 5727 5725 5723 5720 5718 5716 5714 5713 5711 5710 5708 5707 5706 5705 5704 5703 5702 5701
5765 5764 5763 5764 5762 5761 5761 5760 5757 5755 5754 5752 5750 5749 5747 5744 5742 5740 5738 5736 5733 5731 5729 5726 5723 5721 5719 5716 5714 5712 5709 5707 5705 5704 5702 5700 5699 5698 5697 5696 5695 5694 5693 5692
5758 5757 5759 5757 5756 5755 5754 5752 5750 5749 5747 5745 5743 5741 5739 5737 5735 5732 5730 5728 5725 5723 5721 5718 5715 5713 5711 5708 5706 5703 5701 5699 5697 5695 5693 5691 5690 5688 5687 5687 5686 5685 5684 5683
5753 5753 5751 5750 5748 5747 5746 5744 5743 5742 5740 5738 5736 5734 5732 5729 5727 5725 5722 5720 5717 5715 5712 5710 5707 5704 5702 5700 5697 5695 5693 5691 5689 5686 5684 5682 5680 5679 5678 5677 5676 5676 5675 5674
5745 5744 5743 5742 5740 5739 5738 5737 5735 5734 5732 5731 5729 5726 5724 5721 5719 5716 5714 5711 5709 5706 5704 5701 5699 5696 5694 5691 5689 5687 5685 5683 5680 5678 5676 5673 5671 5670 5669 5667 5666 5666 5665 5664
5737 5737 5735 5734 5733 5731 5730 5729 5728 5726 5725 5723 5721 5718 5716 5713 5710 5708 5705 5703 5700 5697 5695 5692 5690 5687 5685 5683 5680 5678 5676 5674 5672 5669 5667 5665 5663 5661 5659 5658 5657 5656 5655 5654
5730 5729 5727 5726 5725 5723 5722 5721 5720 5718 5717 5715 5712 5710 5707 5705 5702 5700 5697 5694 5692 5689 5686 5683 5681 5678 5676 5674 5672 5669 5667 5665 5662 5660 5658 5655 5653 5651 5649 5648 5647 5645 5645 5644
5721 5719 5718 5717 5716 5715 5714 5712 5711 5709 5708 5706 5704 5701 5699 5696 5694 5691 5688 5686 5683 5680 5677 5675 5672 5669 5667 5665 5663 5661 5658 5656 5653 5651 5648 5646 5643 5641 5640 5639 5637 5636 5634 5634
5712 5711 5710 5709 5708 5707 5705 5704 5702 5701 5699 5697 5695 5692 5690 5688 5685 5683 5680 5677 5674 5672 5669 5666 5663 5661 5659 5656 5654 5652 5649 5647 5644 5641 5639 5636 5634 5632 5630 5628 5627 5626 5624 5623
5704 5703 5702 5700 5699 5698 5696 5695 5693 5692 5690 5688 5686 5684 5682 5679 5677 5674 5672 5669 5666 5664 5661 5658 5655 5653 5650 5648 5645 5643 5641 5638 5635 5632 5629 5627 5625 5622 5620 5619 5617 5615 5614 5613
5696 5694 5693 5692 5690 5689 5687 5686 5684 5682 5681 5679 5677 5675 5673 5671 5668 5666 5664 5661 5659 5656 5653 5650 5647 5645 5642 5640 5637 5634 5632 5629 5626 5623 5620 5618 5616 5613 5611 5610 5608 5606 5605 5603
5688 5686 5685 5684 5682 5680 5679 5677 5675 5673 5672 5670 5668 5666 5664 5662 5660 5658 5656 5653 5650 5648 5645 5642 5639 5636 5634 5631 5628 5625 5623 5620 5617 5615 5612 5609 5607 5604 5602 5600 5599 5597 5596 5594
5679 5678 5677 5675 5674 5672 5670 5668 5667 5665 5663 5661 5660 5658 5656 5654 5652 5650 5647 5645 5642 5640 5637 5634 5631 5628 5625 5622 5619 5616 5614 5611 5608 5606 5603 5601 5598 5595 5593 5591 5589 5587 5586 5585
5671 5669 5668 5667 5665 5663 5661 5660 5658 5656 5654 5653 5651 5649 5647 5645 5643 5641 5639 5636 5634 5631 5629 5625 5622 5620 5617 5614 5611 5608 5605 5602 5600 5597 5594 5592 5589 5587 5584 5582 5580 5578 5577 5575
5663 5661 5660 5658 5656 5654 5653 5651 5649 5647 5646 5644 5642 5641 5639 5637 5635 5633 5630 5628 5625 5622 5620 5617 5614 5611 5608 5605 5602 5599 5596 5593 5591 5588 5586 5583 5581 5578 5576 5574 5572 5570 5568 5566
5655 5654 5652 5650 5648 5646 5644 5642 5640 5639 5637 5635 5634 5632 5630 5628 5626 5624 5621 5619 5617 5614 5611 5608 5605 5602 5599 5596 5593 5590 5587 5585 5582 5579 5577 5575 5572 5570 5568 5566 5564 5562 5560 5558
5647 5646 5644 5642 5640 5638 5636 5634 5632 5630 5629 5627 5625 5623 5621 5620 5618 5615 5613 5611 5608 5605 5602 5599 5596 5594 5590 5587 5585 5582 5579 5576 5573 5571 5569 5566 5564 5562 5560 5558 5556 5554 5552 5550
5639 5637 5636 5634 5632 5630 5628 5626 5624 5622 5620 5619 5617 5615 5613 5611 5609 5607 5604 5602 5599 5596 5593 5591 5588 5585 5582 5579 5576 5573 5570 5568 5565 5563 5560 5558 5556 5554 5552 5550 5547 5545 5543 5541
5631 5630 5628 5626 5624 5622 5620 5619 5616 5614 5612 5610 5608 5606 5604 5602 5600 5598 5595 5593 5590 5587 5585 5582 5579 5576 5573 5570 5567 5564 5561 5559 5556 5554 5552 5550 5547 5545 5543 5541 5539 5537 5535 5532
5623 5622 5620 5618 5616 5614 5612 5610 5608 5606 5604 5602 5600 5598 5596 5594 5591 5589 5586 5584 5581 5579 5576 5573 5570 5567 5563 5560 5558 5555 5553 5550 5548 5545 5543 5541 5539 5537 5535 5532 5530 5528 5526 5523
5615 5613 5612 5610 5608 5606 5604 5602 5599 5597 5595 5593 5591 5589 5587 5585 5582 5580 5577 5575 5572 5570 5567 5564 5561 5558 5554 5551 5548 5546 5543 5541 5538 5536 5534 5532 5530 5528 5526 5524 5522 5520 5517 5515
5607 5605 5603 5601 5599 5597 5595 5593 5591 5589 5587 5584 5582 5580 5578 5576 5573 5571 5568 5566 5563 5560 5558 5555 5551 5548 5545 5542 5539 5536 5534 5531 5529 5527 5525 5523 5521 5519 5517 5515 5513 5511 5509 5506